Location: Amber Place
(27.9751°N, 82.3711°W)
Time: 08:10:14
(UTC+00:00)

X-37B - Visible Passes

Search period start: 18 September 2021 00:00
Search period end: 28 September 2021 00:00
Orbit: 381 x 393 km, 45.0° (Epoch: 29 August)

Date Brightness Start Highest point End Pass type
(mag) Time Alt. Az. Time Alt. Az. Time Alt. Az.
18 Sep 1.2 10:08:50 24° SSW 10:10:25 52° SE 10:13:29 10° ENE visible
19 Sep 3.6 09:13:37 16° E 09:13:37 16° E 09:14:37 10° E visible
19 Sep 1.8 10:45:57 10° W 10:48:40 27° NNW 10:51:26 10° NNE visible
20 Sep 1.0 09:50:37 53° N 09:50:37 53° N 09:53:20 10° NE visible
21 Sep 2.7 10:27:29 13° NW 10:28:41 15° NNW 10:30:38 10° N visible
22 Sep 3.2 09:31:58 16° NNE 09:31:58 16° NNE 09:32:53 10° NNE visible
